Regional Weather Roundup
Issued by NWS

Home | Current Version | Previous Version | Text Only | Print | Product List | Glossary Off
Versions: 1 2 3 4 5 6 7 8 9 10 11 12 13 14 15 16 17 18 19 20 21 22 23 24 25 26 27 28 29 30 31 32 33 34 35 36 37 38 39 40 41 42 43 44 45 46 47 48 49 50

000
ASUS43 KFSD 031010
RWRSD

WEATHER ROUNDUP FOR SOUTH DAKOTA
NATIONAL WEATHER SERVICE SIOUX FALLS SD
400 AM CST TUE MAR 03 2015

NOTE: "FAIR" INDICATES FEW OR NO CLOUDS BELOW 12,000 FEET WITH NO
SIGNIFICANT WEATHER AND/OR OBSTRUCTIONS TO VISIBILITY.


SDZ001>005-009-010-012>017-031100-
NORTHWEST AND NORTH CENTRAL SOUTH DAKOTA

CITY           SKY/WX    TMP DP  RH WIND       PRES   REMARKS
BUFFALO          N/A     15   9  76 NW25      29.82R WCI  -4
FAITH            N/A     16   9  74 N37G45    29.81R WCI  -6
MOBRIDGE       CLOUDY    20  12  71 N23G35    29.77S WCI   3
$$

SDZ012>016-024>037-041>051-057-063-072>074-031100-
SOUTHWEST AND SOUTH CENTRAL SOUTH DAKOTA

CITY           SKY/WX    TMP DP  RH WIND       PRES   REMARKS
RAPID CTY ARPT FOG       17  14  88 NW35G44   29.80R VSB 3/4 WCI  -4
PIERRE         FOG       22  20  92 N35G45    29.69R VSB 1/2 WCI   3
CUSTER         FLURRIES  16   8  71 N14G26    29.64R WCI   2
ELLSWORTH AFB  HVY SNOW  17  14  88 N28G41    29.80R VSB 0   WCI  -2
PHILIP         LGT SNOW  20  15  81 N35G46    29.73R WCI   0
PINE RIDGE     LGT SNOW  25  21  85 N22G31    29.71R VSB 1   WCI  10
SPEARFISH      LGT SNOW  14  10  85 MISG      29.87R VSB 1
WINNER         LGT SNOW  29  24  82 NW6       29.64S WCI  23
$$

SDZ004>011-016>023-039-040-031100-
NORTHEAST SOUTH DAKOTA

CITY           SKY/WX    TMP DP  RH WIND       PRES   REMARKS
ABERDEEN       LGT SNOW  27  25  92 N13       29.71S VSB 3/4 WCI  16
WATERTOWN      LGT SNOW  24  21  88 S7        29.67F FOG     WCI  16
SISSETON         N/A     27  26  96 S9        29.68F WCI  18
$$

SDZ017-020-022-023-036>040-048>070-031100-
SOUTHEAST SOUTH DAKOTA

CITY           SKY/WX    TMP DP  RH WIND       PRES   REMARKS
SIOUX FALLS    CLOUDY    25  19  78 S9        29.67F WCI  15
HURON          LGT SNOW  28  21  75 SE3       29.66F
CHAMBERLAIN    LGT SNOW  27  26  94 CALM      29.64F
MITCHELL       CLOUDY    28  20  71 MISG      29.67F
YANKTON        CLOUDY    28  18  64 SE6       29.69F WCI  22
$$

ABBREVIATIONS USED IN REMARKS
   TC - TEMPERATURE IN CELSIUS
  WCI - WIND CHILL INDEX
   HX - HEAT INDEX
  VSB - VISIBILITY




USA.gov is the U.S. government's official web portal to all federal, state and local government web resources and services.